owner,sensor,date,latitude,longitude,vertical_datum,sea_water_practical_salinity,qcFlag 
SCCF RECON,ioos:station:SCCF:12:1,2009-12-01T00:00:00Z,26.4966,-82.1479,2.51,34.19,1111122 
SCCF RECON,ioos:station:SCCF:12:1,2009-12-01T01:00:00Z,26.4966,-82.1479,2.6,34.35,1111122 
SCCF RECON,ioos:station:SCCF:12:1,2009-12-01T02:00:00Z,26.4966,-82.1479,2.691,34.45,1111122 
SCCF RECON,ioos:station:SCCF:12:1,2009-12-01T03:00:00Z,26.4966,-82.1479,2.77,34.53,1111122 
SCCF RECON,ioos:station:SCCF:12:1,2009-12-01T04:00:00Z,26.4966,-82.1479,2.79,34.51,1111122 
SCCF RECON,ioos:station:SCCF:12:1,2009-12-01T05:00:00Z,26.4966,-82.1479,2.732,34.51,1111122 
SCCF RECON,ioos:station:SCCF:12:1,2009-12-01T06:00:00Z,26.4966,-82.1479,2.63,34.42,1111122 
SCCF RECON,ioos:station:SCCF:12:1,2009-12-01T07:00:00Z,26.4966,-82.1479,2.47,34.28,1111122 
SCCF RECON,ioos:station:SCCF:12:1,2009-12-01T08:00:00Z,26.4966,-82.1479,2.3,34.31,1111122 
SCCF RECON,ioos:station:SCCF:12:1,2009-12-01T09:00:00Z,26.4966,-82.1479,2.151,34.3,1111122 
SCCF RECON,ioos:station:SCCF:12:1,2009-12-01T10:00:00Z,26.4966,-82.1479,2.02,34.34,1111122 
SCCF RECON,ioos:station:SCCF:12:1,2009-12-01T11:00:00Z,26.4966,-82.1479,1.9,34.34,1111122 
SCCF RECON,ioos:station:SCCF:12:1,2009-12-01T12:00:00Z,26.4966,-82.1479,1.82,34.39,1111122 
SCCF RECON,ioos:station:SCCF:12:1,2009-12-01T13:00:00Z,26.4966,-82.1479,1.86,34.37,1111122 
SCCF RECON,ioos:station:SCCF:12:1,2009-12-01T14:00:00Z,26.4966,-82.1479,2.035,34.37,1111122 
SCCF RECON,ioos:station:SCCF:12:1,2009-12-01T15:00:00Z,26.4966,-82.1479,2.2,34.4,1111122 
SCCF RECON,ioos:station:SCCF:12:1,2009-12-01T16:00:00Z,26.4966,-82.1479,2.336,34.3,1111122 
SCCF RECON,ioos:station:SCCF:12:1,2009-12-01T17:00:00Z,26.4966,-82.1479,2.45,34.16,1111122 
SCCF RECON,ioos:station:SCCF:12:1,2009-12-01T18:00:00Z,26.4966,-82.1479,2.5,33.99,1111122 
SCCF RECON,ioos:station:SCCF:12:1,2009-12-01T19:00:00Z,26.4966,-82.1479,2.49,33.95,1111122 
SCCF RECON,ioos:station:SCCF:12:1,2009-12-01T20:00:00Z,26.4966,-82.1479,2.43,33.99,1111122 
SCCF RECON,ioos:station:SCCF:12:1,2009-12-01T21:00:00Z,26.4966,-82.1479,2.37,33.67,1111122 
SCCF RECON,ioos:station:SCCF:12:1,2009-12-01T22:00:00Z,26.4966,-82.1479,2.35,33.36,1111122 
SCCF RECON,ioos:station:SCCF:12:1,2009-12-01T23:00:00Z,26.4966,-82.1479,2.37,33.59,1111122 
SCCF RECON,ioos:station:SCCF:12:1,2009-12-02T00:00:00Z,26.4966,-82.1479,2.45,33.71,1111122 
SCCF RECON,ioos:station:SCCF:12:1,2009-12-02T01:00:00Z,26.4966,-82.1479,2.56,33.64,1111122 
SCCF RECON,ioos:station:SCCF:12:1,2009-12-02T02:00:00Z,26.4966,-82.1479,2.7,33.92,1111122 
SCCF RECON,ioos:station:SCCF:12:1,2009-12-02T03:00:00Z,26.4966,-82.1479,2.801,34.02,1111122 
SCCF RECON,ioos:station:SCCF:12:1,2009-12-02T04:00:00Z,26.4966,-82.1479,2.85,34.08,1111122 
SCCF RECON,ioos:station:SCCF:12:1,2009-12-02T05:00:00Z,26.4966,-82.1479,2.83,33.9,1111122 
SCCF RECON,ioos:station:SCCF:12:1,2009-12-02T06:00:00Z,26.4966,-82.1479,2.751,33.85,1111122 
SCCF RECON,ioos:station:SCCF:12:1,2009-12-02T07:00:00Z,26.4966,-82.1479,2.65,33.58,1111122 
SCCF RECON,ioos:station:SCCF:12:1,2009-12-02T08:00:00Z,26.4966,-82.1479,2.49,33.4,1111122 
SCCF RECON,ioos:station:SCCF:12:1,2009-12-02T09:00:00Z,26.4966,-82.1479,2.33,33.26,1111122 
SCCF RECON,ioos:station:SCCF:12:1,2009-12-02T10:00:00Z,26.4966,-82.1479,2.18,33.27,1111122 
SCCF RECON,ioos:station:SCCF:12:1,2009-12-02T11:00:00Z,26.4966,-82.1479,2.04,33.25,1111122 
SCCF RECON,ioos:station:SCCF:12:1,2009-12-02T12:00:00Z,26.4966,-82.1479,1.94,33.32,1111122 
SCCF RECON,ioos:station:SCCF:12:1,2009-12-02T13:00:00Z,26.4966,-82.1479,1.87,33.41,1111122 
SCCF RECON,ioos:station:SCCF:12:1,2009-12-02T14:00:00Z,26.4966,-82.1479,1.949,33.46,1111122 
SCCF RECON,ioos:station:SCCF:12:1,2009-12-02T15:00:00Z,26.4966,-82.1479,2.14,33.44,1111122 
SCCF RECON,ioos:station:SCCF:12:1,2009-12-02T16:00:00Z,26.4966,-82.1479,2.314,33.4,1111122 
SCCF RECON,ioos:station:SCCF:12:1,2009-12-02T17:00:00Z,26.4966,-82.1479,2.439,33.16,1111122 
SCCF RECON,ioos:station:SCCF:12:1,2009-12-02T18:00:00Z,26.4966,-82.1479,2.5,32.91,1111122 
SCCF RECON,ioos:station:SCCF:12:1,2009-12-02T19:00:00Z,26.4966,-82.1479,2.54,32.71,1111122 
SCCF RECON,ioos:station:SCCF:12:1,2009-12-02T20:00:00Z,26.4966,-82.1479,2.55,32.74,1111122 
SCCF RECON,ioos:station:SCCF:12:1,2009-12-02T21:00:00Z,26.4966,-82.1479,2.52,32.74,1111122 
SCCF RECON,ioos:station:SCCF:12:1,2009-12-02T22:00:00Z,26.4966,-82.1479,2.5,32.84,1111122 
SCCF RECON,ioos:station:SCCF:12:1,2009-12-02T23:00:00Z,26.4966,-82.1479,2.48,32.93,1111122 
SCCF RECON,ioos:station:SCCF:12:1,2009-12-03T00:00:00Z,26.4966,-82.1479,2.49,32.96,1111122 
SCCF RECON,ioos:station:SCCF:12:1,2009-12-03T01:00:00Z,26.4966,-82.1479,2.54,32.98,1111122 
SCCF RECON,ioos:station:SCCF:12:1,2009-12-03T02:00:00Z,26.4966,-82.1479,2.627,32.94,1111122 
SCCF RECON,ioos:station:SCCF:12:1,2009-12-03T03:00:00Z,26.4966,-82.1479,2.72,32.94,1111122 
SCCF RECON,ioos:station:SCCF:12:1,2009-12-03T04:00:00Z,26.4966,-82.1479,2.79,32.92,1111122 
SCCF RECON,ioos:station:SCCF:12:1,2009-12-03T05:00:00Z,26.4966,-82.1479,2.811,32.96,1111122 
SCCF RECON,ioos:station:SCCF:12:1,2009-12-03T06:00:00Z,26.4966,-82.1479,2.8,33.01,1111122 
SCCF RECON,ioos:station:SCCF:12:1,2009-12-03T07:00:00Z,26.4966,-82.1479,2.73,33.27,1111122 
SCCF RECON,ioos:station:SCCF:12:1,2009-12-03T08:00:00Z,26.4966,-82.1479,2.629,33.55,1111122 
SCCF RECON,ioos:station:SCCF:12:1,2009-12-03T09:00:00Z,26.4966,-82.1479,2.473,33.55,1111122 
SCCF RECON,ioos:station:SCCF:12:1,2009-12-03T10:00:00Z,26.4966,-82.1479,2.32,33.36,1111122 
SCCF RECON,ioos:station:SCCF:12:1,2009-12-03T11:00:00Z,26.4966,-82.1479,2.2,33.13,1111122 
SCCF RECON,ioos:station:SCCF:12:1,2009-12-03T12:00:00Z,26.4966,-82.1479,2.059,33.15,1111122 
SCCF RECON,ioos:station:SCCF:12:1,2009-12-03T13:00:00Z,26.4966,-82.1479,1.932,33.14,1111122 
SCCF RECON,ioos:station:SCCF:12:1,2009-12-03T14:00:00Z,26.4966,-82.1479,1.86,33.19,1111122 
SCCF RECON,ioos:station:SCCF:12:1,2009-12-03T15:00:00Z,26.4966,-82.1479,1.88,33.16,1111122 
SCCF RECON,ioos:station:SCCF:12:1,2009-12-03T16:00:00Z,26.4966,-82.1479,2.02,32.99,1111122 
SCCF RECON,ioos:station:SCCF:12:1,2009-12-03T17:00:00Z,26.4966,-82.1479,2.17,33.23,1111122 
SCCF RECON,ioos:station:SCCF:12:1,2009-12-03T18:00:00Z,26.4966,-82.1479,2.3,33.26,1111122 
SCCF RECON,ioos:station:SCCF:12:1,2009-12-03T19:00:00Z,26.4966,-82.1479,2.39,33.19,1111122 
SCCF RECON,ioos:station:SCCF:12:1,2009-12-03T20:00:00Z,26.4966,-82.1479,2.44,33.52,1111122 
SCCF RECON,ioos:station:SCCF:12:1,2009-12-03T21:00:00Z,26.4966,-82.1479,2.44,33.71,1111122 
SCCF RECON,ioos:station:SCCF:12:1,2009-12-03T22:00:00Z,26.4966,-82.1479,2.409,33.8,1111122 
SCCF RECON,ioos:station:SCCF:12:1,2009-12-03T23:00:00Z,26.4966,-82.1479,2.36,33.84,1111122 
SCCF RECON,ioos:station:SCCF:12:1,2009-12-04T00:00:00Z,26.4966,-82.1479,2.32,33.83,1111122 
SCCF RECON,ioos:station:SCCF:12:1,2009-12-04T01:00:00Z,26.4966,-82.1479,2.32,33.77,1111122 
SCCF RECON,ioos:station:SCCF:12:1,2009-12-04T02:00:00Z,26.4966,-82.1479,2.366,33.43,1111122 
SCCF RECON,ioos:station:SCCF:12:1,2009-12-04T03:00:00Z,26.4966,-82.1479,2.45,33.35,1111122 
SCCF RECON,ioos:station:SCCF:12:1,2009-12-04T04:00:00Z,26.4966,-82.1479,2.574,33.16,1111122 
SCCF RECON,ioos:station:SCCF:12:1,2009-12-04T05:00:00Z,26.4966,-82.1479,2.67,32.98,1111122 
SCCF RECON,ioos:station:SCCF:12:1,2009-12-04T06:00:00Z,26.4966,-82.1479,2.72,32.97,1111122 
SCCF RECON,ioos:station:SCCF:12:1,2009-12-04T07:00:00Z,26.4966,-82.1479,2.69,32.99,1111122 
SCCF RECON,ioos:station:SCCF:12:1,2009-12-04T08:00:00Z,26.4966,-82.1479,2.6,33.13,1111122 
SCCF RECON,ioos:station:SCCF:12:1,2009-12-04T09:00:00Z,26.4966,-82.1479,2.48,33.17,1111122 
SCCF RECON,ioos:station:SCCF:12:1,2009-12-04T10:00:00Z,26.4966,-82.1479,2.34,33.14,1111122 
SCCF RECON,ioos:station:SCCF:12:1,2009-12-04T11:00:00Z,26.4966,-82.1479,2.2,33.16,1111122 
SCCF RECON,ioos:station:SCCF:12:1,2009-12-04T12:00:00Z,26.4966,-82.1479,2.06,33.19,1111122 
SCCF RECON,ioos:station:SCCF:12:1,2009-12-04T13:00:00Z,26.4966,-82.1479,1.931,33.14,1111122 
SCCF RECON,ioos:station:SCCF:12:1,2009-12-04T14:00:00Z,26.4966,-82.1479,1.82,33.04,1111122 
SCCF RECON,ioos:station:SCCF:12:1,2009-12-04T15:00:00Z,26.4966,-82.1479,1.73,32.92,1111122 
SCCF RECON,ioos:station:SCCF:12:1,2009-12-04T16:00:00Z,26.4966,-82.1479,1.74,32.77,1111122 
SCCF RECON,ioos:station:SCCF:12:1,2009-12-04T17:00:00Z,26.4966,-82.1479,1.86,32.8,1111122 
SCCF RECON,ioos:station:SCCF:12:1,2009-12-04T18:00:00Z,26.4966,-82.1479,1.982,32.77,1111122 
SCCF RECON,ioos:station:SCCF:12:1,2009-12-04T19:00:00Z,26.4966,-82.1479,2.1,32.76,1111122 
SCCF RECON,ioos:station:SCCF:12:1,2009-12-04T20:00:00Z,26.4966,-82.1479,2.21,32.75,1111122 
SCCF RECON,ioos:station:SCCF:12:1,2009-12-04T21:00:00Z,26.4966,-82.1479,2.29,32.84,1111122 
SCCF RECON,ioos:station:SCCF:12:1,2009-12-04T22:00:00Z,26.4966,-82.1479,2.32,32.95,1111122 
SCCF RECON,ioos:station:SCCF:12:1,2009-12-04T23:00:00Z,26.4966,-82.1479,2.3,33.02,1111122 
SCCF RECON,ioos:station:SCCF:12:1,2009-12-05T00:00:00Z,26.4966,-82.1479,2.24,33.02,1111122 
SCCF RECON,ioos:station:SCCF:12:1,2009-12-05T01:00:00Z,26.4966,-82.1479,2.2,33.07,1111122 
SCCF RECON,ioos:station:SCCF:12:1,2009-12-05T02:00:00Z,26.4966,-82.1479,2.2,32.99,1111122 
SCCF RECON,ioos:station:SCCF:12:1,2009-12-05T03:00:00Z,26.4966,-82.1479,2.23,32.83,1111122 
SCCF RECON,ioos:station:SCCF:12:1,2009-12-05T04:00:00Z,26.4966,-82.1479,2.32,32.6,1111122 
SCCF RECON,ioos:station:SCCF:12:1,2009-12-05T05:00:00Z,26.4966,-82.1479,2.431,32.45,1111122 
SCCF RECON,ioos:station:SCCF:12:1,2009-12-05T06:00:00Z,26.4966,-82.1479,2.53,32.51,1111122 
SCCF RECON,ioos:station:SCCF:12:1,2009-12-05T07:00:00Z,26.4966,-82.1479,2.59,32.49,1111122 
SCCF RECON,ioos:station:SCCF:12:1,2009-12-05T08:00:00Z,26.4966,-82.1479,2.58,32.27,1111122 
SCCF RECON,ioos:station:SCCF:12:1,2009-12-05T09:00:00Z,26.4966,-82.1479,2.53,32.18,1111122 
SCCF RECON,ioos:station:SCCF:12:1,2009-12-05T10:00:00Z,26.4966,-82.1479,2.46,32.39,1111122 
SCCF RECON,ioos:station:SCCF:12:1,2009-12-05T11:00:00Z,26.4966,-82.1479,2.36,32.61,1111122 
SCCF RECON,ioos:station:SCCF:12:1,2009-12-05T12:00:00Z,26.4966,-82.1479,2.22,32.42,1111122 
SCCF RECON,ioos:station:SCCF:12:1,2009-12-05T13:00:00Z,26.4966,-82.1479,2.09,32.4,1111122 
SCCF RECON,ioos:station:SCCF:12:1,2009-12-05T14:00:00Z,26.4966,-82.1479,1.97,32.22,1111122 
SCCF RECON,ioos:station:SCCF:12:1,2009-12-05T15:00:00Z,26.4966,-82.1479,1.9,32.23,1111122 
SCCF RECON,ioos:station:SCCF:12:1,2009-12-05T16:00:00Z,26.4966,-82.1479,1.863,32.02,1111122 
SCCF RECON,ioos:station:SCCF:12:1,2009-12-05T17:00:00Z,26.4966,-82.1479,1.94,32.25,1111122 
SCCF RECON,ioos:station:SCCF:12:1,2009-12-05T18:00:00Z,26.4966,-82.1479,2.07,32.28,1111122 
SCCF RECON,ioos:station:SCCF:12:1,2009-12-05T19:00:00Z,26.4966,-82.1479,2.19,32.31,1111122 
SCCF RECON,ioos:station:SCCF:12:1,2009-12-05T20:00:00Z,26.4966,-82.1479,2.26,32.19,1111122 
SCCF RECON,ioos:station:SCCF:12:1,2009-12-05T21:00:00Z,26.4966,-82.1479,2.27,32.31,1111122 
SCCF RECON,ioos:station:SCCF:12:1,2009-12-05T22:00:00Z,26.4966,-82.1479,2.28,32.29,1111122 
SCCF RECON,ioos:station:SCCF:12:1,2009-12-05T23:00:00Z,26.4966,-82.1479,2.271,32.13,1111122 
SCCF RECON,ioos:station:SCCF:12:1,2009-12-06T00:00:00Z,26.4966,-82.1479,2.23,32.09,1111122 
SCCF RECON,ioos:station:SCCF:12:1,2009-12-06T01:00:00Z,26.4966,-82.1479,2.17,32.11,1111122 
SCCF RECON,ioos:station:SCCF:12:1,2009-12-06T02:00:00Z,26.4966,-82.1479,2.1,31.77,1111122 
SCCF RECON,ioos:station:SCCF:12:1,2009-12-06T03:00:00Z,26.4966,-82.1479,2.06,32.03,1111122 
SCCF RECON,ioos:station:SCCF:12:1,2009-12-06T04:00:00Z,26.4966,-82.1479,2.06,31.89,1111122 
SCCF RECON,ioos:station:SCCF:12:1,2009-12-06T05:00:00Z,26.4966,-82.1479,2.11,31.86,1111122 
SCCF RECON,ioos:station:SCCF:12:1,2009-12-06T06:00:00Z,26.4966,-82.1479,2.229,31.96,1111122 
SCCF RECON,ioos:station:SCCF:12:1,2009-12-06T07:00:00Z,26.4966,-82.1479,2.33,32.01,1111122 
SCCF RECON,ioos:station:SCCF:12:1,2009-12-06T08:00:00Z,26.4966,-82.1479,2.39,32.14,1111122 
SCCF RECON,ioos:station:SCCF:12:1,2009-12-06T09:00:00Z,26.4966,-82.1479,2.408,32.19,1111122 
SCCF RECON,ioos:station:SCCF:12:1,2009-12-06T10:00:00Z,26.4966,-82.1479,2.38,32.15,1111122 
SCCF RECON,ioos:station:SCCF:12:1,2009-12-06T11:00:00Z,26.4966,-82.1479,2.33,32.09,1111122 
SCCF RECON,ioos:station:SCCF:12:1,2009-12-06T12:00:00Z,26.4966,-82.1479,2.26,32.12,1111122 
SCCF RECON,ioos:station:SCCF:12:1,2009-12-06T13:00:00Z,26.4966,-82.1479,2.17,32.16,1111122 
SCCF RECON,ioos:station:SCCF:12:1,2009-12-06T14:00:00Z,26.4966,-82.1479,2.07,32.02,1111122 
SCCF RECON,ioos:station:SCCF:12:1,2009-12-06T15:00:00Z,26.4966,-82.1479,1.98,32.35,1111122 
SCCF RECON,ioos:station:SCCF:12:1,2009-12-06T16:00:00Z,26.4966,-82.1479,1.897,32.53,1111122 
SCCF RECON,ioos:station:SCCF:12:1,2009-12-06T17:00:00Z,26.4966,-82.1479,1.86,32.68,1111122 
SCCF RECON,ioos:station:SCCF:12:1,2009-12-06T18:00:00Z,26.4966,-82.1479,1.9,32.65,1111122 
SCCF RECON,ioos:station:SCCF:12:1,2009-12-06T19:00:00Z,26.4966,-82.1479,2.0,32.62,1111122 
SCCF RECON,ioos:station:SCCF:12:1,2009-12-06T20:00:00Z,26.4966,-82.1479,2.108,32.54,1111122 
SCCF RECON,ioos:station:SCCF:12:1,2009-12-06T21:00:00Z,26.4966,-82.1479,2.2,32.54,1111122 
SCCF RECON,ioos:station:SCCF:12:1,2009-12-06T22:00:00Z,26.4966,-82.1479,2.29,32.5,1111122 
SCCF RECON,ioos:station:SCCF:12:1,2009-12-06T23:00:00Z,26.4966,-82.1479,2.35,32.31,1111122 
SCCF RECON,ioos:station:SCCF:12:1,2009-12-07T00:00:00Z,26.4966,-82.1479,2.37,32.28,1111122 
SCCF RECON,ioos:station:SCCF:12:1,2009-12-07T01:00:00Z,26.4966,-82.1479,2.35,32.05,1111122 
SCCF RECON,ioos:station:SCCF:12:1,2009-12-07T02:00:00Z,26.4966,-82.1479,2.31,31.89,1111122 
SCCF RECON,ioos:station:SCCF:12:1,2009-12-07T03:00:00Z,26.4966,-82.1479,2.232,31.88,1111122 
SCCF RECON,ioos:station:SCCF:12:1,2009-12-07T04:00:00Z,26.4966,-82.1479,2.21,31.97,1111122 
SCCF RECON,ioos:station:SCCF:12:1,2009-12-07T05:00:00Z,26.4966,-82.1479,2.23,32.01,1111122 
SCCF RECON,ioos:station:SCCF:12:1,2009-12-07T06:00:00Z,26.4966,-82.1479,2.3,32.08,1111122 
SCCF RECON,ioos:station:SCCF:12:1,2009-12-07T07:00:00Z,26.4966,-82.1479,2.38,32.24,1111122 
SCCF RECON,ioos:station:SCCF:12:1,2009-12-07T08:00:00Z,26.4966,-82.1479,2.44,32.3,1111122 
SCCF RECON,ioos:station:SCCF:12:1,2009-12-07T09:00:00Z,26.4966,-82.1479,2.48,32.23,1111122 
SCCF RECON,ioos:station:SCCF:12:1,2009-12-07T10:00:00Z,26.4966,-82.1479,2.48,32.03,1111122 
SCCF RECON,ioos:station:SCCF:12:1,2009-12-07T11:00:00Z,26.4966,-82.1479,2.46,31.97,1111122 
SCCF RECON,ioos:station:SCCF:12:1,2009-12-07T12:00:00Z,26.4966,-82.1479,2.39,31.94,1111122 
SCCF RECON,ioos:station:SCCF:12:1,2009-12-07T13:00:00Z,26.4966,-82.1479,2.318,31.87,1111122 
SCCF RECON,ioos:station:SCCF:12:1,2009-12-07T14:00:00Z,26.4966,-82.1479,2.21,31.92,1111122 
SCCF RECON,ioos:station:SCCF:12:1,2009-12-07T15:00:00Z,26.4966,-82.1479,2.068,31.86,1111122 
SCCF RECON,ioos:station:SCCF:12:1,2009-12-07T17:00:00Z,26.4966,-82.1479,1.332,31.86,1111122 
SCCF RECON,ioos:station:SCCF:12:1,2009-12-07T18:00:00Z,26.4966,-82.1479,1.66,31.9,1111122 
SCCF RECON,ioos:station:SCCF:12:1,2009-12-07T19:00:00Z,26.4966,-82.1479,1.825,31.94,1111122 
SCCF RECON,ioos:station:SCCF:12:1,2009-12-07T20:00:00Z,26.4966,-82.1479,1.97,31.94,1111122 
SCCF RECON,ioos:station:SCCF:12:1,2009-12-07T21:00:00Z,26.4966,-82.1479,2.11,31.92,1111122 
SCCF RECON,ioos:station:SCCF:12:1,2009-12-07T22:00:00Z,26.4966,-82.1479,2.21,31.9,1111122 
SCCF RECON,ioos:station:SCCF:12:1,2009-12-07T23:00:00Z,26.4966,-82.1479,2.29,31.71,1111122 
SCCF RECON,ioos:station:SCCF:12:1,2009-12-08T00:00:00Z,26.4966,-82.1479,2.31,31.7,1111122 
SCCF RECON,ioos:station:SCCF:12:1,2009-12-08T01:00:00Z,26.4966,-82.1479,2.32,31.63,1111122 
SCCF RECON,ioos:station:SCCF:12:1,2009-12-08T02:00:00Z,26.4966,-82.1479,2.31,31.6,1111122 
SCCF RECON,ioos:station:SCCF:12:1,2009-12-08T03:00:00Z,26.4966,-82.1479,2.26,31.62,1111122 
SCCF RECON,ioos:station:SCCF:12:1,2009-12-08T04:00:00Z,26.4966,-82.1479,2.2,31.65,1111122 
SCCF RECON,ioos:station:SCCF:12:1,2009-12-08T05:00:00Z,26.4966,-82.1479,2.17,31.65,1111122 
SCCF RECON,ioos:station:SCCF:12:1,2009-12-08T06:00:00Z,26.4966,-82.1479,2.17,31.64,1111122 
SCCF RECON,ioos:station:SCCF:12:1,2009-12-08T07:00:00Z,26.4966,-82.1479,2.2,31.66,1111122 
SCCF RECON,ioos:station:SCCF:12:1,2009-12-08T08:00:00Z,26.4966,-82.1479,2.24,31.74,1111122 
SCCF RECON,ioos:station:SCCF:12:1,2009-12-08T09:00:00Z,26.4966,-82.1479,2.291,31.79,1111122 
SCCF RECON,ioos:station:SCCF:12:1,2009-12-08T10:00:00Z,26.4966,-82.1479,2.35,31.83,1111122 
SCCF RECON,ioos:station:SCCF:12:1,2009-12-08T11:00:00Z,26.4966,-82.1479,2.391,31.77,1111122 
SCCF RECON,ioos:station:SCCF:12:1,2009-12-08T12:00:00Z,26.4966,-82.1479,2.41,31.68,1111122 
SCCF RECON,ioos:station:SCCF:12:1,2009-12-08T13:00:00Z,26.4966,-82.1479,2.41,31.61,1111122 
SCCF RECON,ioos:station:SCCF:12:1,2009-12-08T14:00:00Z,26.4966,-82.1479,2.37,31.55,1111122 
SCCF RECON,ioos:station:SCCF:12:1,2009-12-08T15:00:00Z,26.4966,-82.1479,2.29,31.53,1111122 
SCCF RECON,ioos:station:SCCF:12:1,2009-12-08T16:00:00Z,26.4966,-82.1479,2.2,31.52,1111122 
SCCF RECON,ioos:station:SCCF:12:1,2009-12-08T17:00:00Z,26.4966,-82.1479,2.12,31.52,1111122 
SCCF RECON,ioos:station:SCCF:12:1,2009-12-08T18:00:00Z,26.4966,-82.1479,2.08,31.56,1111122 
SCCF RECON,ioos:station:SCCF:12:1,2009-12-08T19:00:00Z,26.4966,-82.1479,2.09,31.55,1111122 
SCCF RECON,ioos:station:SCCF:12:1,2009-12-08T20:00:00Z,26.4966,-82.1479,2.14,31.62,1111122 
SCCF RECON,ioos:station:SCCF:12:1,2009-12-08T21:00:00Z,26.4966,-82.1479,2.21,31.71,1111122 
SCCF RECON,ioos:station:SCCF:12:1,2009-12-08T22:00:00Z,26.4966,-82.1479,2.29,31.68,1111122 
SCCF RECON,ioos:station:SCCF:12:1,2009-12-08T23:00:00Z,26.4966,-82.1479,2.358,31.61,1111122 
SCCF RECON,ioos:station:SCCF:12:1,2009-12-09T00:00:00Z,26.4966,-82.1479,2.41,31.54,1111122 
SCCF RECON,ioos:station:SCCF:12:1,2009-12-09T01:00:00Z,26.4966,-82.1479,2.44,31.49,1111122 
SCCF RECON,ioos:station:SCCF:12:1,2009-12-09T02:00:00Z,26.4966,-82.1479,2.44,31.48,1111122 
SCCF RECON,ioos:station:SCCF:12:1,2009-12-09T03:00:00Z,26.4966,-82.1479,2.41,31.35,1111122 
SCCF RECON,ioos:station:SCCF:12:1,2009-12-09T04:00:00Z,26.4966,-82.1479,2.36,31.33,1111122 
SCCF RECON,ioos:station:SCCF:12:1,2009-12-09T05:00:00Z,26.4966,-82.1479,2.29,31.32,1111122 
SCCF RECON,ioos:station:SCCF:12:1,2009-12-09T06:00:00Z,26.4966,-82.1479,2.24,31.32,1111122 
SCCF RECON,ioos:station:SCCF:12:1,2009-12-09T07:00:00Z,26.4966,-82.1479,2.21,31.35,1111122 
SCCF RECON,ioos:station:SCCF:12:1,2009-12-09T08:00:00Z,26.4966,-82.1479,2.21,31.5,1111122 
SCCF RECON,ioos:station:SCCF:12:1,2009-12-09T09:00:00Z,26.4966,-82.1479,2.241,31.51,1111122 
SCCF RECON,ioos:station:SCCF:12:1,2009-12-09T10:00:00Z,26.4966,-82.1479,2.29,31.5,1111122 
SCCF RECON,ioos:station:SCCF:12:1,2009-12-09T11:00:00Z,26.4966,-82.1479,2.34,31.5,1111122 
SCCF RECON,ioos:station:SCCF:12:1,2009-12-09T12:00:00Z,26.4966,-82.1479,2.38,31.44,1111122 
SCCF RECON,ioos:station:SCCF:12:1,2009-12-09T13:00:00Z,26.4966,-82.1479,2.4,31.43,1111122 
SCCF RECON,ioos:station:SCCF:12:1,2009-12-09T14:00:00Z,26.4966,-82.1479,2.4,31.36,1111122 
SCCF RECON,ioos:station:SCCF:12:1,2009-12-09T15:00:00Z,26.4966,-82.1479,2.39,31.27,1111122 
SCCF RECON,ioos:station:SCCF:12:1,2009-12-09T16:00:00Z,26.4966,-82.1479,2.32,31.27,1111122 
SCCF RECON,ioos:station:SCCF:12:1,2009-12-09T17:00:00Z,26.4966,-82.1479,2.22,31.3,1111122 
SCCF RECON,ioos:station:SCCF:12:1,2009-12-09T18:00:00Z,26.4966,-82.1479,2.16,31.29,1111122 
SCCF RECON,ioos:station:SCCF:12:1,2009-12-09T19:00:00Z,26.4966,-82.1479,2.14,31.3,1111122 
SCCF RECON,ioos:station:SCCF:12:1,2009-12-09T20:00:00Z,26.4966,-82.1479,2.16,31.29,1111122 
SCCF RECON,ioos:station:SCCF:12:1,2009-12-09T21:00:00Z,26.4966,-82.1479,2.21,31.29,1111122 
SCCF RECON,ioos:station:SCCF:12:1,2009-12-09T22:00:00Z,26.4966,-82.1479,2.27,31.29,1111122 
SCCF RECON,ioos:station:SCCF:12:1,2009-12-09T23:00:00Z,26.4966,-82.1479,2.33,31.31,1111122 
SCCF RECON,ioos:station:SCCF:12:1,2009-12-10T00:00:00Z,26.4966,-82.1479,2.38,31.34,1111122 
SCCF RECON,ioos:station:SCCF:12:1,2009-12-10T01:00:00Z,26.4966,-82.1479,2.44,31.36,1111122 
SCCF RECON,ioos:station:SCCF:12:1,2009-12-10T02:00:00Z,26.4966,-82.1479,2.46,31.42,1111122 
SCCF RECON,ioos:station:SCCF:12:1,2009-12-10T03:00:00Z,26.4966,-82.1479,2.474,31.5,1111122 
SCCF RECON,ioos:station:SCCF:12:1,2009-12-10T04:00:00Z,26.4966,-82.1479,2.433,31.54,1111122 
SCCF RECON,ioos:station:SCCF:12:1,2009-12-10T05:00:00Z,26.4966,-82.1479,2.36,31.6,1111122 
SCCF RECON,ioos:station:SCCF:12:1,2009-12-10T06:00:00Z,26.4966,-82.1479,2.256,31.53,1111122 
SCCF RECON,ioos:station:SCCF:12:1,2009-12-10T07:00:00Z,26.4966,-82.1479,2.16,31.51,1111122 
SCCF RECON,ioos:station:SCCF:12:1,2009-12-10T08:00:00Z,26.4966,-82.1479,2.1,31.51,1111122 
SCCF RECON,ioos:station:SCCF:12:1,2009-12-10T09:00:00Z,26.4966,-82.1479,2.09,31.49,1111122 
SCCF RECON,ioos:station:SCCF:12:1,2009-12-10T10:00:00Z,26.4966,-82.1479,2.12,31.51,1111122 
SCCF RECON,ioos:station:SCCF:12:1,2009-12-10T11:00:00Z,26.4966,-82.1479,2.17,31.51,1111122 
SCCF RECON,ioos:station:SCCF:12:1,2009-12-10T12:00:00Z,26.4966,-82.1479,2.22,31.56,1111122 
SCCF RECON,ioos:station:SCCF:12:1,2009-12-10T13:00:00Z,26.4966,-82.1479,2.27,31.56,1111122 
SCCF RECON,ioos:station:SCCF:12:1,2009-12-10T14:00:00Z,26.4966,-82.1479,2.32,31.65,1111122 
SCCF RECON,ioos:station:SCCF:12:1,2009-12-10T15:00:00Z,26.4966,-82.1479,2.36,31.83,1111122 
SCCF RECON,ioos:station:SCCF:12:1,2009-12-10T16:00:00Z,26.4966,-82.1479,2.37,31.79,1111122 
SCCF RECON,ioos:station:SCCF:12:1,2009-12-10T17:00:00Z,26.4966,-82.1479,2.38,31.89,1111122 
SCCF RECON,ioos:station:SCCF:12:1,2009-12-10T18:00:00Z,26.4966,-82.1479,2.35,31.88,1111122 
SCCF RECON,ioos:station:SCCF:12:1,2009-12-10T19:00:00Z,26.4966,-82.1479,2.3,31.77,1111122 
SCCF RECON,ioos:station:SCCF:12:1,2009-12-10T20:00:00Z,26.4966,-82.1479,2.26,31.8,1111122 
SCCF RECON,ioos:station:SCCF:12:1,2009-12-10T21:00:00Z,26.4966,-82.1479,2.25,31.78,1111122 
SCCF RECON,ioos:station:SCCF:12:1,2009-12-10T22:00:00Z,26.4966,-82.1479,2.29,31.69,1111122 
SCCF RECON,ioos:station:SCCF:12:1,2009-12-10T23:00:00Z,26.4966,-82.1479,2.35,31.68,1111122 
SCCF RECON,ioos:station:SCCF:12:1,2009-12-11T00:00:00Z,26.4966,-82.1479,2.411,31.68,1111122 
SCCF RECON,ioos:station:SCCF:12:1,2009-12-11T01:00:00Z,26.4966,-82.1479,2.46,31.73,1111122 
SCCF RECON,ioos:station:SCCF:12:1,2009-12-11T02:00:00Z,26.4966,-82.1479,2.48,31.88,1111122 
SCCF RECON,ioos:station:SCCF:12:1,2009-12-11T03:00:00Z,26.4966,-82.1479,2.48,31.81,1111122 
SCCF RECON,ioos:station:SCCF:12:1,2009-12-11T04:00:00Z,26.4966,-82.1479,2.45,31.75,1111122 
SCCF RECON,ioos:station:SCCF:12:1,2009-12-11T05:00:00Z,26.4966,-82.1479,2.385,31.82,1111122 
SCCF RECON,ioos:station:SCCF:12:1,2009-12-11T06:00:00Z,26.4966,-82.1479,2.28,31.82,1111122 
SCCF RECON,ioos:station:SCCF:12:1,2009-12-11T07:00:00Z,26.4966,-82.1479,2.17,31.81,1111122 
SCCF RECON,ioos:station:SCCF:12:1,2009-12-11T08:00:00Z,26.4966,-82.1479,2.07,31.81,1111122 
SCCF RECON,ioos:station:SCCF:12:1,2009-12-11T09:00:00Z,26.4966,-82.1479,1.99,31.79,1111122 
SCCF RECON,ioos:station:SCCF:12:1,2009-12-11T10:00:00Z,26.4966,-82.1479,1.94,31.79,1111122 
SCCF RECON,ioos:station:SCCF:12:1,2009-12-11T11:00:00Z,26.4966,-82.1479,1.93,31.84,1111122 
SCCF RECON,ioos:station:SCCF:12:1,2009-12-11T12:00:00Z,26.4966,-82.1479,1.956,32.02,1111122 
SCCF RECON,ioos:station:SCCF:12:1,2009-12-11T13:00:00Z,26.4966,-82.1479,2.01,32.04,1111122 
SCCF RECON,ioos:station:SCCF:12:1,2009-12-11T14:00:00Z,26.4966,-82.1479,2.07,31.94,1111122 
SCCF RECON,ioos:station:SCCF:12:1,2009-12-11T15:00:00Z,26.4966,-82.1479,2.13,32.03,1111122 
SCCF RECON,ioos:station:SCCF:12:1,2009-12-11T16:00:00Z,26.4966,-82.1479,2.19,31.93,1111122 
SCCF RECON,ioos:station:SCCF:12:1,2009-12-11T17:00:00Z,26.4966,-82.1479,2.21,31.74,1111122 
SCCF RECON,ioos:station:SCCF:12:1,2009-12-11T18:00:00Z,26.4966,-82.1479,2.22,31.78,1111122 
SCCF RECON,ioos:station:SCCF:12:1,2009-12-11T19:00:00Z,26.4966,-82.1479,2.22,31.86,1111122 
SCCF RECON,ioos:station:SCCF:12:1,2009-12-11T20:00:00Z,26.4966,-82.1479,2.22,31.88,1111122 